Regional Weather Roundup
Issued by NWS Cleveland, OH

Home | Current Version | Previous Version | Graphics & Text | Print | Product List | Glossary On
Versions: 1 2 3 4 5 6 7 8 9 10 11 12 13 14 15 16 17 18 19 20 21 22 23 24 25 26 27 28 29 30 31 32 33 34 35 36 37 38 39 40 41 42 43 44 45 46 47 48 49 50
000
ASUS41 KCLE 141000
RWRCLE
OHIO REGIONAL WEATHER ROUNDUP
NATIONAL WEATHER SERVICE WILMINGTON, OH
600 AM EDT MON JUL 14 2014

NOTE: "FAIR" INDICATES FEW OR NO CLOUDS BELOW 12,000 FEET WITH NO
SIGNIFICANT WEATHER AND/OR OBSTRUCTIONS TO VISIBILITY.

OHZ001>008-015>018-024>027-034-035-043-044-141100-
   NORTHWEST OHIO

CITY           SKY/WX    TMP DP  RH WIND       PRES   REMARKS
DEFIANCE       MOCLDY    68  64  87 S5        29.87F
FINDLAY        MOCLDY    66  63  90 S5        29.88S
TOLEDO EXPRESS MOCLDY    64  63  96 CALM      29.86F
TOLEDO METCALF MOCLDY    68  63  84 NW3       29.88S
LIMA           MOCLDY    69  65  86 CALM      29.90S FOG
$$

OHZ009>014-019>023-028>033-038-089-141100-
   NORTHEAST OHIO

CITY           SKY/WX    TMP DP  RH WIND       PRES   REMARKS
CLE-HOPKINS    MOCLDY    67  65  93 S6        29.90F
CLE-LAKEFRONT  CLEAR     70  66  87 SE7       29.86F
CUY CO. ARPT   NOT AVBL
LORAIN-ELYRIA  PTCLDY    69  64  84 CALM      29.89F
ASHTABULA      FOG       65  63  93 CALM      29.91S VSB 1/4
AKRON-CANTON   CLOUDY    71  67  87 SW6       29.91F
WOOSTER        NOT AVBL
MANSFIELD      CLOUDY    68  67  96 S3        29.92S
YOUNGSTOWN     FOG       68  68 100 S3        29.92R VSB 1/2
$$

OHZ042-051>053-060>062-070>072-077>081-141100-
  SOUTHWEST OHIO

CITY           SKY/WX    TMP DP  RH WIND       PRES   REMARKS
CINC-COVINGTON RAIN      72  69  90 SW9       29.93R FOG
CINC-LUNKEN    RAIN      71  70  96 SW7       29.92S FOG
HAMILTON       HVY RAIN  72  71  97 VRB6      29.92S VSB 1
DAYTON         NOT AVBL
WRIGHT-PAT AFB NOT AVBL
DAYTON GENERAL CLOUDY    71  71 100 SW5       29.91S THUNDER FOG
WILMINGTON     CLOUDY    71  69  93 S8        29.91F FOG
$$

OHZ036-037-039>041-045>050-054>059-063>069-073>076-082>088-141100-
  CENTRAL AND SOUTHEAST OHIO

CITY           SKY/WX    TMP DP  RH WIND       PRES   REMARKS
COLUMBUS       CLOUDY    74  70  87 SW3       29.90S FOG
OSU AIRPORT    CLOUDY    70  69  97 SW5       29.90F FOG
BOLTON FIELD   NOT AVBL
RICKENBACK AFB NOT AVBL
NEWARK         CLOUDY    70  68  93 CALM      29.91S FOG
MARION         FOG       69  68  96 S6        29.91R VSB 1/4
LANCASTER      CLOUDY    73  71  93 S3        29.91F FOG
ZANESVILLE     CLOUDY    71  69  93 S6        29.92S FOG
NEW PHILLY     CLOUDY    71  70  96 CALM      29.92S
$$


USA.gov is the U.S. government's official web portal to all federal, state and local government web resources and services.